South Paris, Maine, United States (04281)
Lat: 44.22N, Lon: 70.51W
Wx Zone: MEZ012
Local Info
Past Weather Observations for Thursday, April 17, 2014

NOTE: This archive is for the closest National Weather Service station to South Paris. Information may differ from the station used for current weather conditions.

Time Weather Temperature Dewpoint Humidity Pressure Winds Precip Visibility
23:55
Clear
27°F / -3°C 12°F / -11°C 54% 30.66 in
(1038 mb)
N 9.2 mph
(N 15 kph)
- 10SM
23:35
Clear
27°F / -3°C 10°F / -12°C 50% 30.66 in
(1038 mb)
N 6.9 mph
(N 11 kph)
- 10SM
23:15
Clear
27°F / -3°C 12°F / -11°C 54% 30.63 in
(1037 mb)
N 10.4 mph
(N 17 kph)
- 10SM
22:55
Clear
27°F / -3°C 12°F / -11°C 54% 30.63 in
(1037 mb)
N 11.5 mph
(N 19 kph)
- 10SM
22:35
Clear
27°F / -3°C 12°F / -11°C 54% 30.63 in
(1037 mb)
N 9.2 mph
(N 15 kph)
- 10SM
22:15
Clear
27°F / -3°C 12°F / -11°C 54% 30.63 in
(1037 mb)
N 9.2 mph
(N 15 kph)
- 10SM
21:55
Clear
28°F / -2°C 10°F / -12°C 47% 30.63 in
(1037 mb)
N 8.1 mph
(N 13 kph)
- 10SM
21:35
Clear
28°F / -2°C 10°F / -12°C 47% 30.6 in
(1036 mb)
N 9.2 mph
(N 15 kph)
- 10SM
21:15
Clear
28°F / -2°C 10°F / -12°C 47% 30.6 in
(1036 mb)
N 11.5 mph
(N 19 kph)
- 10SM
20:55
Clear
28°F / -2°C 10°F / -12°C 47% 30.6 in
(1036 mb)
N 8.1 mph
(N 13 kph)
- 10SM
20:35
Clear
28°F / -2°C 12°F / -11°C 51% 30.57 in
(1035 mb)
N 9.2 mph
(N 15 kph)
- 10SM
20:15
Clear
30°F / -1°C 12°F / -11°C 47% 30.57 in
(1035 mb)
N 8.1 mph
(N 13 kph)
- 10SM
19:55
Clear
30°F / -1°C 12°F / -11°C 47% 30.57 in
(1035 mb)
N 9.2 mph
(N 15 kph)
- 10SM
19:35
Clear
30°F / -1°C 12°F / -11°C 47% 30.54 in
(1034 mb)
N 9.2 mph
(N 15 kph)
- 10SM
19:15
Clear
30°F / -1°C 12°F / -11°C 47% 30.54 in
(1034 mb)
N 8.1 mph
(N 13 kph)
- 10SM
18:55
Clear
32°F / 0°C 12°F / -11°C 44% 30.51 in
(1033 mb)
N 9.2 mph
(N 15 kph)
- 10SM
18:35
Clear
32°F / 0°C 12°F / -11°C 44% 30.48 in
(1032 mb)
NNW 5.8 mph
(NNW 9 kph)
- 10SM
18:15
Clear
34°F / 1°C 10°F / -12°C 38% 30.48 in
(1032 mb)
NW 8.1 mph
(NW 13 kph)
- 10SM
17:55
Clear
34°F / 1°C 10°F / -12°C 38% 30.45 in
(1031 mb)
NNW 10.4 mph
(NNW 17 kph)
- 10SM
17:35
Clear
34°F / 1°C 12°F / -11°C 41% 30.45 in
(1031 mb)
NW 8.1 mph
(NW 13 kph)
- 10SM
17:15
Clear
36°F / 2°C 10°F / -12°C 35% 30.45 in
(1031 mb)
NNW 10.4 mph
(NNW 17 kph)
- 10SM
16:55
Clear
36°F / 2°C 12°F / -11°C 38% 30.45 in
(1031 mb)
NNW 9.2 mph
(NNW 15 kph)
- 10SM
16:35
Clear
36°F / 2°C 12°F / -11°C 38% 30.42 in
(1030 mb)
NW 11.5 mph
(NW 19 kph)
- 10SM
16:15
Clear
36°F / 2°C 12°F / -11°C 38% 30.42 in
(1030 mb)
NW 13.8 mph
(NW 22 kph)
- 10SM
15:55
Clear
36°F / 2°C 12°F / -11°C 38% 30.39 in
(1029 mb)
NW 19.6 mph
(NW 32 kph)
- 10SM
15:35
Clear
36°F / 2°C 12°F / -11°C 38% 30.39 in
(1029 mb)
NW 12.7 mph
(NW 20 kph)
- 10SM
15:15
Clear
36°F / 2°C 14°F / -10°C 41% 30.39 in
(1029 mb)
NW 13.8 mph
(NW 22 kph)
- 10SM
14:55
Clear
36°F / 2°C 12°F / -11°C 38% 30.36 in
(1028 mb)
NW 13.8 mph
(NW 22 kph)
- 10SM
14:35
Clear
36°F / 2°C 12°F / -11°C 38% 30.36 in
(1028 mb)
NNW 15 mph
(NNW 24 kph)
- 10SM
14:15
Clear
36°F / 2°C 14°F / -10°C 41% 30.36 in
(1028 mb)
NW 15 mph
(NW 24 kph)
- 10SM
13:55
Clear
36°F / 2°C 14°F / -10°C 41% 30.33 in
(1027 mb)
NW 13.8 mph
(NW 22 kph)
- 10SM
13:35
Clear
36°F / 2°C 16°F / -9°C 44% 30.33 in
(1027 mb)
NNW 16.1 mph
(NNW 26 kph)
- 10SM
13:15
Clear
36°F / 2°C 16°F / -9°C 44% 30.33 in
(1027 mb)
WNW 16.1 mph
(WNW 26 kph)
- 10SM
12:55
Clear
36°F / 2°C 16°F / -9°C 44% 30.3 in
(1026 mb)
NW 15 mph
(NW 24 kph)
- 10SM
12:35
Clear
34°F / 1°C 16°F / -9°C 48% 30.3 in
(1026 mb)
NW 15 mph
(NW 24 kph)
- 10SM
12:15
Clear
34°F / 1°C 14°F / -10°C 44% 30.3 in
(1026 mb)
WNW 13.8 mph
(WNW 22 kph)
- 10SM
11:55
Clear
34°F / 1°C 14°F / -10°C 44% 30.27 in
(1025 mb)
NW 9.2 mph
(NW 15 kph)
- 10SM
11:35
Clear
34°F / 1°C 14°F / -10°C 44% 30.27 in
(1025 mb)
NNW 15 mph
(NNW 24 kph)
- 10SM
11:15
Clear
32°F / 0°C 12°F / -11°C 44% 30.24 in
(1024 mb)
NNW 23 mph
(NNW 37 kph)
- 10SM
10:55
Partly Cloudy
32°F / 0°C 12°F / -11°C 44% 30.24 in
(1024 mb)
NNW 18.4 mph
(NNW 30 kph)
- 10SM
10:35
Partly Cloudy
30°F / -1°C 14°F / -10°C 51% 30.24 in
(1024 mb)
NNW 17.3 mph
(NNW 28 kph)
- 10SM
10:15
Clear
30°F / -1°C 12°F / -11°C 47% 30.21 in
(1023 mb)
N 18.4 mph
(N 30 kph)
- 10SM
09:55
Partly Cloudy
30°F / -1°C 14°F / -10°C 51% 30.21 in
(1023 mb)
NNW 17.3 mph
(NNW 28 kph)
- 10SM
09:35
Mostly Cloudy
30°F / -1°C 14°F / -10°C 51% 30.21 in
(1023 mb)
NW 13.8 mph
(NW 22 kph)
- 10SM
09:15
Partly Cloudy
30°F / -1°C 14°F / -10°C 51% 30.18 in
(1022 mb)
NW 13.8 mph
(NW 22 kph)
- 10SM
08:55
Partly Cloudy
28°F / -2°C 14°F / -10°C 55% 30.18 in
(1022 mb)
NNW 16.1 mph
(NNW 26 kph)
- 10SM
08:35
Partly Cloudy
28°F / -2°C 14°F / -10°C 55% 30.15 in
(1021 mb)
NNW 11.5 mph
(NNW 19 kph)
- 10SM
08:15
Clear
28°F / -2°C 14°F / -10°C 55% 30.15 in
(1021 mb)
NW 16.1 mph
(NW 26 kph)
- 10SM
07:55
Partly Cloudy
28°F / -2°C 14°F / -10°C 55% 30.12 in
(1020 mb)
NW 18.4 mph
(NW 30 kph)
- 10SM
07:35
Partly Cloudy
28°F / -2°C 16°F / -9°C 59% 30.09 in
(1019 mb)
NW 11.5 mph
(NW 19 kph)
- 10SM
07:15
Clear
27°F / -3°C 16°F / -9°C 64% 30.09 in
(1019 mb)
NW 12.7 mph
(NW 20 kph)
- 10SM
06:55
Partly Cloudy
27°F / -3°C 16°F / -9°C 64% 30.06 in
(1018 mb)
NW 9.2 mph
(NW 15 kph)
- 10SM
06:35
Clear
27°F / -3°C 16°F / -9°C 64% 30.04 in
(1017 mb)
NW 10.4 mph
(NW 17 kph)
- 10SM
06:15
Clear
27°F / -3°C 16°F / -9°C 64% 30.01 in
(1016 mb)
NW 11.5 mph
(NW 19 kph)
- 10SM
05:55
Clear
27°F / -3°C 16°F / -9°C 64% 29.98 in
(1015 mb)
NW 15 mph
(NW 24 kph)
- 10SM
05:35
Partly Cloudy
28°F / -2°C 18°F / -8°C 64% 29.95 in
(1014 mb)
NW 13.8 mph
(NW 22 kph)
- 10SM
05:15
Partly Cloudy
28°F / -2°C 18°F / -8°C 64% 29.92 in
(1013 mb)
NW 20.7 mph
(NW 33 kph)
- 10SM
04:55
Overcast
28°F / -2°C 18°F / -8°C 64% 29.83 in
(1010 mb)
NNW 19.6 mph
(NNW 32 kph)
- 10SM
04:35
Overcast
28°F / -2°C 21°F / -6°C 74% 29.86 in
(1011 mb)
NNW 9.2 mph
(NNW 15 kph)
- 10SM
04:15
Overcast
30°F / -1°C 23°F / -5°C 75% 29.86 in
(1011 mb)
NW 11.5 mph
(NW 19 kph)
- 10SM
03:55
Overcast
30°F / -1°C 25°F / -4°C 80% 29.8 in
(1009 mb)
NNW 11.5 mph
(NNW 19 kph)
0.06 in
(1.52 mm)
10SM
03:35
Overcast
30°F / -1°C 27°F / -3°C 86% 29.83 in
(1010 mb)
NW 13.8 mph
(NW 22 kph)
0.06 in
(1.52 mm)
1SM
03:15
Overcast
30°F / -1°C 27°F / -3°C 86% 29.83 in
(1010 mb)
NW 6.9 mph
(NW 11 kph)
0.02 in
(0.51 mm)
3/4SM
02:55
Overcast
30°F / -1°C 27°F / -3°C 86% 29.8 in
(1009 mb)
NW 10.4 mph
(NW 17 kph)
0.10 in
(2.54 mm)
1 1/2SM
02:35
Overcast
30°F / -1°C 27°F / -3°C 86% 29.77 in
(1008 mb)
NW 13.8 mph
(NW 22 kph)
0.08 in
(2.03 mm)
2SM
02:15
Overcast
32°F / 0°C 28°F / -2°C 87% 29.74 in
(1007 mb)
NNW 21.9 mph
(NNW 35 kph)
0.05 in
(1.27 mm)
1 3/4SM
01:55
Overcast
34°F / 1°C 28°F / -2°C 81% 29.74 in
(1007 mb)
NW 12.7 mph
(NW 20 kph)
0.06 in
(1.52 mm)
3SM
01:35
Overcast
34°F / 1°C 28°F / -2°C 81% 29.74 in
(1007 mb)
NW 12.7 mph
(NW 20 kph)
0.05 in
(1.27 mm)
4SM
01:15
Overcast
34°F / 1°C 30°F / -1°C 87% 29.74 in
(1007 mb)
NW 19.6 mph
(NW 32 kph)
0.03 in
(0.76 mm)
6SM
00:55
Overcast
36°F / 2°C 32°F / 0°C 87% 29.74 in
(1007 mb)
NNW 10.4 mph
(NNW 17 kph)
0.08 in
(2.03 mm)
7SM
00:35
Overcast
37°F / 3°C 34°F / 1°C 87% 29.71 in
(1006 mb)
NW 8.1 mph
(NW 13 kph)
0.06 in
(1.52 mm)
7SM
00:15
Overcast
37°F / 3°C 34°F / 1°C 87% 29.68 in
(1005 mb)
NW 8.1 mph
(NW 13 kph)
0.03 in
(0.76 mm)
7SM
Time Weather Temperature Dewpoint Humidity Pressure Winds Precip Visibility


Weather for websites

WeatherForYou.com, LLC is not responsible for any damages or problems caused by this service. Current weather conditions are obtained from the closest station including government and personal stations which may have varying degrees of accuracy. Weather forecasts are derived from the NOAA NDFD. Like all things, this site belongs to Jesus Christ... He just trusts me to maintain it. If you have any questions or comments email webmaster@weatherforyou.com

Copyright © 2014, WeatherForYou.com LLC. All rights reserved.